Flag for U.S.A. Weather past 2 weeks in Kailua-Kona, Hawaii, U.S.A.

Now
84 °F

Broken clouds.


Feels Like: 92 °F
Forecast: 75 / 83 °F
Wind: 3 mph from West

Location: Keahole Airport

Current Time: Sep 4, 2015 at 9:33:54 AM

Latest Report: Sep 4, 2015 at 8:53 AM


Visibility: 10 mi

Pressure: 29.86 "Hg

Humidity: 74%

Dew point: 75 °F

Location of Kailua-KonaLocation

Historic Weather in Kailua-Kona — Graph

°F

Kailua-Kona temperature yesterday

Maximum temperature yesterday: 89 °F (at 10:53 AM)
Minimum temperature yesterday: 78 °F (at 12:53 AM)
Average temperature yesterday: 83 °F

Past Weeks' High & Low Weather Summary

 TemperatureHumidityPressure
High91 °F (Aug 31, 2:53 PM)96% (Aug 24, 11:53 AM)29.94 "Hg (Aug 24, 11:53 AM)
Low75 °F (Aug 25, 4:53 AM)48% (Aug 29, 7:53 AM)29.78 "Hg (Sep 1, 2:53 PM)
Average83 °F74%29.86 "Hg
* Reported Aug 20 7:53 AM — Sep 4 7:53 AM, Kailua-Kona, Weather by CustomWeather, © 2015

Note: Actual official high and low records may vary slightly from our data, if they occured in-between our weather recording intervals... More about our weather records

Advertising

Kailua-Kona weather history for previous 24 hours

 ConditionsComfort  
Time TempWeatherWind HumidityBarometerVisibility
7:53 AM
Fri, Sep 4
83 °FSunny.3 mph79%29.85 "Hg10 mi
6:53 AM80 °FPassing clouds.6 mph87%29.85 "Hg10 mi
5:53 AM80 °FPassing clouds.5 mph81%29.84 "Hg10 mi
4:53 AM80 °FPassing clouds.3 mph81%29.83 "Hg10 mi
3:53 AM80 °FPassing clouds.No wind79%29.82 "Hg10 mi
2:53 AM81 °FPassing clouds.3 mph79%29.83 "Hg10 mi
1:53 AM81 °FClear.6 mph79%29.84 "Hg10 mi
12:53 AM82 °FMostly cloudy.5 mph77%29.86 "Hg10 mi
12:43 AM82 °FOvercast.8 mph74%29.86 "Hg10 mi
11:53 PM
Thu, Sep 3
81 °FOvercast.7 mph82%29.88 "Hg10 mi
10:53 PM81 °FPartly cloudy.6 mph85%29.88 "Hg10 mi
10:04 PM81 °FPassing clouds.7 mph84%29.87 "Hg10 mi
9:53 PM82 °FMostly cloudy.7 mph79%29.88 "Hg10 mi
8:53 PM82 °FPassing clouds.9 mph82%29.85 "Hg10 mi
8:00 PM82 °FMostly cloudy.7 mph84%29.85 "Hg10 mi
7:00 PM84 °FMostly cloudy.10 mph74%29.84 "Hg10 mi
5:53 PM85 °FPassing clouds.12 mph75%29.82 "Hg10 mi
4:53 PM87 °FScattered clouds.6 mph67%29.82 "Hg10 mi
3:53 PM87 °FMore clouds than sun.10 mph67%29.83 "Hg10 mi
2:53 PM87 °FScattered clouds.12 mph69%29.83 "Hg10 mi
1:53 PM88 °FSunny.12 mph67%29.84 "Hg10 mi
12:53 PM88 °FSunny.8 mph65%29.86 "Hg10 mi
11:53 AM88 °FSunny.7 mph61%29.87 "Hg10 mi
10:53 AM89 °FSunny.6 mph59%29.88 "Hg10 mi
9:53 AM86 °FPassing clouds.6 mph63%29.88 "Hg10 mi
Weather by CustomWeather, © 2015

See weather overviewHow to use our weather pages